Weather History for Naples, FL

Change the Weather History Date:

Sunday, January 29, 2012

  Actual Average Record
Temperature  
Mean Temperature 70 °F 65 °F  
Max Temperature 78 °F 75 °F 86 °F (1974)
Min Temperature 62 °F 55 °F 33 °F (1986)
Degree Days  
Heating Degree Days 0 3  
Month to date heating degree days 72 100  
Since 1 July heating degree days 97 178  
Cooling Degree Days 5 2  
Month to date cooling degree days 75 84  
Year to date cooling degree days 75 84  
Growing Degree Days 20 (Base 50)    
Moisture  
Dew Point 55 °F    
Average Humidity 61    
Maximum Humidity 78    
Minimum Humidity 43    
Precipitation  
Precipitation 0.00 in 0.07 in 1.08 in (1961)
Month to date precipitation 0.17 1.69  
Year to date precipitation 0.17 1.69  
Snow  
Snow 0.00 in - - ()
Month to date snowfall 0.0  
Since 1 July snowfall 0.0  
Snow Depth 0.00 in    
Sea Level Pressure  
Sea Level Pressure 30.20 in    
Wind  
Wind Speed 9 mph (NE)    
Max Wind Speed 17 mph    
Max Gust Speed 23 mph    
Visibility 10 miles    
Events      
T = Trace of Precipitation, MM = Missing Value Source: NWS Daily Summary

Daily Weather History Graph

Daily Weather History Graph

Search for Another Location

Airport:

Trip Planner

Search our weather history database for the weather conditions in past years. The results will help you decide how hot, cold, wet, or windy it might be!

Date:

Astronomy

Jan. 29, 2012 Rise Set
Actual Time 7:12 AM EST 6:07 PM EST
Civil Twilight 6:48 AM EST 6:31 PM EST
Nautical Twilight 6:20 AM EST 6:59 PM EST
Astronomical Twilight 5:53 AM EST 7:27 PM EST
Moon 10:47 AM EST (1/29) No Moon Set
Length of Visible Light 11h 43m
Length of Day
10h 54m
Waxing Crescent, 36% of the Moon is Illuminated
Jan 29
Waxing Crescent
Jan 30
First Quarter
Feb 7
Full
Feb 14
Last Quarter
Feb 21
New

Hourly Weather History & Observations

Time (EST) Temp. Dew Point Humidity Pressure Visibility Wind Dir Wind Speed Gust Speed Precip Events Conditions
12:53 AM 64.9 °F 55.9 °F 73% 30.17 in 10.0 mi North 3.5 mph - N/A   Partly Cloudy
1:53 AM 64.0 °F 55.9 °F 75% 30.16 in 10.0 mi North 3.5 mph - N/A   Clear
2:53 AM 64.0 °F 55.9 °F 75% 30.16 in 10.0 mi North 5.8 mph - N/A   Clear
3:53 AM 63.0 °F 55.9 °F 78% 30.15 in 10.0 mi North 5.8 mph - N/A   Mostly Cloudy
4:53 AM 63.0 °F 55.9 °F 78% 30.16 in 10.0 mi NE 6.9 mph - N/A   Partly Cloudy
5:53 AM 63.0 °F 55.0 °F 75% 30.17 in 10.0 mi NE 10.4 mph - N/A   Mostly Cloudy
6:53 AM 63.0 °F 55.0 °F 75% 30.18 in 10.0 mi NE 9.2 mph - N/A   Scattered Clouds
7:53 AM 63.0 °F 53.1 °F 70% 30.21 in 10.0 mi ENE 10.4 mph - N/A   Mostly Cloudy
8:53 AM 66.0 °F 52.0 °F 60% 30.22 in 10.0 mi NE 12.7 mph - N/A   Clear
9:53 AM 66.9 °F 52.0 °F 59% 30.24 in 10.0 mi NE 11.5 mph - N/A   Partly Cloudy
10:53 AM 70.0 °F 51.1 °F 51% 30.25 in 10.0 mi NE 11.5 mph 20.7 mph N/A   Scattered Clouds
11:53 AM 72.0 °F 52.0 °F 49% 30.25 in 10.0 mi NNE 9.2 mph - N/A   Clear
12:53 PM 75.0 °F 53.1 °F 46% 30.22 in 10.0 mi NNE 10.4 mph 17.3 mph N/A   Scattered Clouds
1:53 PM 77.0 °F 53.1 °F 43% 30.19 in 10.0 mi NNE 9.2 mph - N/A   Clear
2:53 PM 77.0 °F 54.0 °F 45% 30.18 in 10.0 mi NE 9.2 mph - N/A   Partly Cloudy
3:53 PM 77.0 °F 55.9 °F 48% 30.17 in 10.0 mi NE 9.2 mph - N/A   Clear
4:53 PM 75.9 °F 55.9 °F 50% 30.18 in 10.0 mi NE 10.4 mph - N/A   Scattered Clouds
5:53 PM 73.9 °F 54.0 °F 50% 30.19 in 10.0 mi NNE 8.1 mph - N/A   Clear
6:53 PM 70.0 °F 55.9 °F 61% 30.21 in 10.0 mi ENE 6.9 mph - N/A   Clear
7:53 PM 68.0 °F 55.9 °F 65% 30.23 in 10.0 mi NE 4.6 mph - N/A   Clear
8:53 PM 66.2 °F 55.4 °F 68% 30.25 in 10.0 mi NE 9.2 mph - N/A   Clear
9:53 PM 64.9 °F 57.0 °F 75% 30.26 in 10.0 mi NE 6.9 mph - N/A   Clear
10:53 PM 64.0 °F 57.0 °F 78% 30.27 in 10.0 mi NE 10.4 mph - N/A   Clear
11:53 PM 62.1 °F 55.0 °F 78% 30.25 in 10.0 mi NE 10.4 mph - N/A   Clear